Location: Le Rocchette
(44.3500°N, 7.8333°E)
Time: 02:10:28
(UTC+00:00)

Daily predictions for brighter satellites

Satellite Brightness Start Highest point End
(mag) Time Altitude Azimuth Time Altitude Azimuth Time Altitude Azimuth
Cosmos 2082 Rocket 4.2 02:43:40 24° NE 02:43:40 24° NE 02:46:07 10° NE
Lacrosse 5 4.0 03:03:27 22° NE 03:03:27 22° NE 03:05:15 10° NE
SL-16 R/B 4.3 03:10:33 17° NNE 03:13:03 22° NE 03:17:21 10° E
CZ-2C R/B 4.1 03:08:54 10° NE 03:13:07 29° E 03:13:43 28° ESE
Cosmos 839 Rocket 4.3 03:17:29 70° ESE 03:17:29 70° ESE 03:23:42 10° NE
Cosmos 1980 Rocket 3.0 03:19:59 46° ESE 03:19:59 46° ESE 03:24:06 10° SE
Cosmos 2322 Rocket 4.3 03:19:06 15° N 03:22:11 22° NE 03:26:30 10° E
CZ-4C R/B 4.3 03:32:39 18° N 03:32:39 18° N 03:35:28 10° NNE
ATLAS 2AS CENTAUR R/B 3.9 03:31:58 24° NNW 03:36:01 40° NE 03:42:44 10° ESE
SJ 16-02 2.7 03:37:48 38° E 03:37:48 38° E 03:41:26 10° NE
Cosmos 1605 Rocket 3.9 03:37:04 65° SSE 03:38:00 82° E 03:44:10 10° N
Centaur D AC-28 4.2 03:39:07 19° S 03:40:31 21° SSE 03:48:45 10° ESE
Cosmos 1898 Rocket 4.0 03:41:11 43° SSE 03:42:30 56° ESE 03:47:39 10° NNE
Cosmos 1937 Rocket 4.3 03:46:56 10° S 03:51:51 48° ESE 03:56:47 10° NNE
SL-4 R/B 3.2 03:59:44 40° N 03:59:50 40° NNE 04:04:24 10° E
Cosmos 1892 4.2 03:57:37 10° SSE 04:01:06 35° E 04:04:35 10° NNE
Meteor 1-31 Rocket 4.3 03:57:27 10° NNE 03:59:27 28° NNE 03:59:27 28° NNE
Cosmos 2058 4.1 04:05:30 34° NNE 04:05:30 34° NNE 04:07:56 10° N
USA 234 4.4 03:58:32 10° NE 04:03:59 29° N 04:05:49 25° NNW
Cosmos 1484 Rocket 4.4 04:03:40 10° NNE 04:07:23 35° E 04:11:04 10° SSE
Gbstr 26 Del rocket 3.4 04:09:01 46° NE 04:09:01 46° NE 04:11:46 10° ENE
CZ-4B R/B 4.5 04:05:11 10° NNE 04:06:40 23° NNE 04:06:40 23° NNE
Okean O Rocket 4.3 04:06:51 10° NE 04:10:02 20° E 04:13:11 10° SE
Cosmos 1356 Rocket 4.4 04:19:35 36° SSW 04:19:35 36° SSW 04:22:13 10° S
PAYLOAD A 4.1 04:13:36 10° N 04:18:50 58° WNW 04:20:31 40° SW
Cosmos 1459 Rocket 4.3 04:13:42 10° S 04:19:48 66° E 04:26:02 10° NNE
Meteor 2-2 Rocket 4.3 04:19:45 49° WNW 04:20:18 51° W 04:25:44 10° SSW
In-Cosmos 22 Rocket 4.1 04:17:04 10° S 04:22:25 81° E 04:27:56 10° NNE
STARLINK-48 3.3 04:22:30 86° NNE 04:22:30 86° NNE 04:26:22 10° NE
STARLINK-43 4.1 04:24:52 40° N 04:24:52 40° N 04:27:47 10° NE
Cosmos 2082 Rocket 2.9 04:25:34 34° NW 04:25:34 34° NW 04:30:11 10° N
Abrixas rocket 4.1 04:27:36 19° SSE 04:28:27 22° SE 04:30:52 10° E
SKYMED 2 4.0 04:24:51 10° SSE 04:29:08 63° ENE 04:33:26 10° N
Cosmos 1151 Rocket 4.2 04:25:11 10° N 04:29:23 43° ENE 04:33:32 10° SSE
Cosmos 1328 Rocket 4.4 04:26:50 10° N 04:31:04 48° ENE 04:35:14 10° SSE
Cosmos 2112 Rocket 4.4 04:32:45 39° WSW 04:32:45 39° WSW 04:37:37 10° S
Cosmos 158 Rocket 3.9 04:34:13 39° NW 04:35:39 54° WSW 04:40:24 10° S
Cosmos 1680 Rocket 4.5 04:40:19 27° WSW 04:40:19 27° WSW 04:43:52 10° SSW
Cosmos 1833 Rocket 4.1 04:41:03 19° NNW 04:41:03 19° NNW 04:44:11 10° N
STARLINK-26 4.3 04:38:43 20° SSW 04:41:21 52° SE 04:45:21 10° ENE
MOS 1-B 4.5 04:37:16 10° NNE 04:43:07 77° ESE 04:48:53 10° S
Lacrosse 5 2.8 04:42:40 28° NW 04:43:36 30° NNW 04:48:05 10° NE
Cosmos 2298 Rocket 4.5 04:39:14 10° S 04:44:28 64° ESE 04:49:44 10° NNE
COSMOS 2455 2.8 04:40:31 18° NNW 04:45:06 82° WSW 04:51:06 10° SSE
STARLINK-61 3.6 04:43:27 28° SW 04:45:28 75° SE 04:49:29 10° ENE
COSMOS 2487 3.7 04:42:51 10° S 04:46:07 42° ESE 04:49:25 10° NNE
PSLV R/B 3.6 04:42:54 10° N 04:46:47 75° WNW 04:50:42 10° SSW
STARLINK-69 4.3 04:43:46 15° SSW 04:47:00 53° SE 04:51:03 10° ENE
NOSS 3-4 (A) 4.1 04:41:05 14° NNW 04:47:19 68° NE 04:54:58 10° SE
NOSS 3-4 (C) 4.1 04:41:11 14° NNW 04:47:25 67° NE 04:55:03 10° SE
Cosmos 2100 Rocket 3.9 04:41:20 10° SSW 04:47:30 72° W 04:53:40 10° N
Meteor 2-20 Rocket 4.4 04:41:41 10° NNW 04:47:45 61° W 04:53:47 10° S
STARLINK-66 4.3 04:45:21 14° SW 04:48:42 53° SE 04:52:45 10° ENE
Cosmos 990 Rocket 4.3 04:46:45 24° WSW 04:49:25 42° WNW 04:54:23 10° N
STARLINK-41 4.2 04:46:52 14° SW 04:50:16 55° SE 04:54:21 10° ENE
CZ-2C R/B 2.9 04:47:00 10° N 04:51:22 33° WNW 04:53:04 26° WSW
STARLINK-64 4.2 04:48:32 14° SW 04:51:57 57° SE 04:56:01 10° ENE
STARLINK-70 4.1 04:50:05 13° SW 04:53:35 58° SE 04:57:41 10° ENE
Cosmos 1408 Rocket 3.6 04:49:35 10° S 04:53:53 79° E 04:58:13 10° N
ATLAS CENTAUR R/B 2.2 04:49:07 10° SSW 04:53:59 66° ESE 04:58:46 10° NE
STARLINK-68 4.0 04:51:55 14° SW 04:55:21 63° SE 04:59:28 10° ENE
NOSS 3-3 (A) 4.2 04:51:48 22° WSW 04:55:36 49° NW 05:02:05 10° NNE
NOSS 3-3 (C) 4.2 04:51:53 21° WSW 04:55:42 49° NW 05:02:12 10° NNE
Cosmos 2360 Rocket 3.0 04:50:58 10° NNW 04:56:33 52° ENE 05:02:03 10° SE
STARLINK-58 4.0 04:53:11 13° SW 04:56:46 62° SE 05:00:52 10° ENE
ASTEX 1 4.1 04:53:13 10° SSW 04:57:34 30° W 05:01:58 10° NNW
SL-16 R/B 2.1 04:52:28 12° NNW 04:57:44 71° WSW 05:03:22 10° SSE
STARLINK-62 3.9 04:55:04 13° SW 04:58:38 67° SE 05:02:46 10° ENE
STARLINK-63 3.9 04:56:30 12° SW 05:00:14 66° SE 05:04:22 10° ENE
Cosmos 1933 4.1 04:57:43 10° N 05:01:41 52° E 05:05:35 10° SSE
STARLINK 4.0 04:57:41 10° SW 05:01:43 62° SE 05:05:49 10° ENE
Cosmos 1980 Rocket 3.4 05:01:49 20° W 05:01:56 20° W 05:06:00 10° SW
STARLINK-67 3.6 05:01:47 27° NNW 05:02:37 35° NNE 05:05:06 10° E
Meteor PRIRODA 4.1 05:00:05 10° N 05:03:28 36° WNW 05:06:49 10° SW
STARLINK-72 3.9 04:59:32 11° SW 05:03:30 68° SE 05:07:37 10° ENE
Cosmos 1802 Rocket 4.0 04:57:10 10° SSW 05:03:35 72° W 05:10:01 10° N
ALOS 2.2 05:01:04 10° NNE 05:05:46 89° ENE 05:10:26 10° SSW
BREEZE-M DEB (TANK) 3.5 05:05:32 25° WSW 05:06:42 34° SSW 05:11:50 10° SE
Cosmos 2322 Rocket 2.1 05:01:09 10° NNW 05:06:48 70° WSW 05:12:26 10° SSE
STARLINK-59 3.8 05:02:55 11° SW 05:06:53 74° SE 05:11:02 10° ENE
Cosmos 2151 3.3 05:03:12 10° SSW 05:07:18 43° WNW 05:11:27 10° N
Cosmos 1766 Rocket 3.7 05:04:08 10° SSW 05:08:17 46° WNW 05:12:29 10° N
STARLINK-57 3.7 05:04:33 11° SW 05:08:35 76° SE 05:12:44 10° ENE
Okean 3 Rocket 4.1 05:05:56 10° SW 05:10:05 35° WNW 05:14:14 10° N
STARLINK-28 3.7 05:07:45 10° SW 05:11:52 81° SE 05:16:01 10° ENE
Cosmos 1408 2.6 05:08:25 10° SSW 05:12:04 57° W 05:15:42 10° N
STARLINK-53 3.7 05:08:25 10° SW 05:12:34 82° SE 05:16:44 10° ENE
STARLINK-75 3.6 05:09:30 11° SW 05:13:24 90° NW 05:17:34 10° NE
Lacrosse 5 rocket 3.1 05:10:59 10° NNW 05:13:28 18° NNE 05:16:01 10° ENE
H-2A R/B 4.4 05:10:56 10° NNW 05:12:35 15° NW 05:12:35 15° NW
STARLINK-54 3.6 05:11:02 10° SW 05:15:11 85° SE 05:19:22 10° ENE
SJ 16-02 2.5 05:14:55 19° W 05:16:04 21° WNW 05:19:29 10° N
COSMO-SKYMED 1 3.0 05:13:07 10° SSW 05:17:11 39° W 05:21:17 10° NNW
Cosmos 2061 Rocket 4.0 05:11:23 10° SSW 05:17:34 64° W 05:23:45 10° N
STARLINK-37 3.6 05:15:30 10° SW 05:19:40 88° NNW 05:23:51 10° NE
STARLINK-55 3.6 05:15:56 10° SW 05:20:05 90° SSW 05:24:15 10° ENE
Shenzhou-11 Module 3.0 05:19:57 18° WSW 05:21:18 29° SSW 05:23:43 10° SE
STARLINK-24 3.6 05:17:23 10° WSW 05:21:33 87° NNW 05:25:44 10° NE
Cosmos 2173 Rocket 4.3 05:15:45 10° SSW 05:21:40 43° WNW 05:27:33 10° N
STARLINK-34 3.6 05:17:41 10° WSW 05:21:50 86° NNW 05:25:59 10° NE
CZ-4C R/B 4.4 05:18:55 10° NNW 05:22:14 14° N 05:25:47 10° NE
STARLINK-81 3.6 05:19:10 10° SW 05:23:19 90° NNE 05:27:28 10° ENE
STARLINK-77 3.6 05:22:29 10° WSW 05:26:38 86° NW 05:30:48 10° NE
ATLAS 2AS CENTAUR R/B 2.9 05:19:56 10° NW 05:27:24 60° WSW 05:34:13 10° SSE
Helios 1A Rocket 2.9 05:23:23 10° N 05:27:27 61° WNW 05:31:27 10° SSW
STARLINK-25 3.6 05:24:14 10° WSW 05:28:22 83° NW 05:32:32 10° NE
STARLINK-71 3.6 05:26:05 10° WSW 05:30:13 76° NNW 05:34:23 10° NE
STARLINK-79 3.6 05:27:28 10° WSW 05:31:37 80° NNW 05:35:46 10° NE
STARLINK-78 3.6 05:29:11 10° WSW 05:33:20 77° NNW 05:37:29 10° NE
Cosmos 2322 4.3 05:28:02 10° NNW 05:33:41 60° ENE 05:39:16 10° SE
Cosmos 1937 Rocket 4.5 05:29:56 10° WSW 05:34:04 24° WNW 05:38:14 10° N
Cosmos 972 Rocket 4.5 05:29:10 10° S 05:34:09 68° ESE 05:39:37 10° NNE
STARLINK-80 4.5 05:32:25 14° WNW 05:35:09 30° NNW 05:38:34 10° NE
Cosmos 2233 Rocket 4.1 05:29:34 10° S 05:35:50 88° ESE 05:42:12 10° N
FENGYUN 3A 3.8 05:31:14 10° N 05:36:31 55° WNW 05:41:46 10° SSW
STARLINK-49 3.6 05:32:30 10° WSW 05:36:38 74° NNW 05:40:48 10° NE
Cosmos 1892 4.2 05:34:31 10° WSW 05:36:56 16° WNW 05:39:22 10° NNW
Cosmos 1782 4.0 05:34:18 10° N 05:38:10 46° ENE 05:42:00 10° SSE
STARLINK-27 3.6 05:34:09 10° WSW 05:38:17 72° NNW 05:42:26 10° NE
Cosmos 1606 2.6 05:34:33 10° NNW 05:38:19 67° W 05:42:05 10° S
CZ-4B R/B 3.2 05:33:25 10° N 05:38:45 64° WNW 05:44:09 10° SSW
SL-4 R/B 2.4 05:35:21 12° WNW 05:39:56 81° SW 05:44:43 10° SE
METEOR-M 4.3 05:34:50 10° N 05:39:58 49° WNW 05:45:05 10° SW
STARLINK-74 3.6 05:35:51 10° WSW 05:39:59 70° NNW 05:44:08 10° NE
Cosmos 2333 Rocket 3.4 05:34:47 10° NNW 05:40:17 43° ENE 05:45:44 10° SE
Cosmos 1484 Rocket 4.1 05:38:35 10° NNW 05:41:33 20° WNW 05:44:32 10° WSW
STARLINK-39 3.6 05:37:32 10° WSW 05:41:40 68° NNW 05:45:48 10° NE
SJ-7 4.4 05:38:16 10° N 05:42:27 68° WNW 05:46:31 10° SSW
STARLINK 3.6 05:39:09 10° WSW 05:43:17 67° NNW 05:47:24 10° NE
BREEZE-M DEB (TANK) 2.6 05:40:40 11° W 05:43:22 50° SSW 05:46:12 10° SE
Cosmos 494 Rocket 4.3 05:38:39 10° NNW 05:43:56 71° ENE 05:49:07 10° SSE
STARLINK-42 3.6 05:39:57 10° WSW 05:44:03 64° NNW 05:48:11 10° NE
USA 116 4.5 05:41:59 10° SSW 05:44:38 24° W 05:47:28 10° NW
STARLINK-21 3.7 05:41:38 10° WSW 05:45:45 64° NNW 05:49:53 10° NE
Cosmos 2150 Rocket 4.4 05:40:42 10° SW 05:45:53 44° WNW 05:51:05 10° N
USA 234 4.2 05:40:01 10° E 05:45:58 39° NNE 05:51:55 10° NW
Cosmos 2228 Rocket 3.2 05:41:41 10° NNW 05:46:14 66° W 05:50:45 10° S
Okean O Rocket 2.0 05:42:28 10° N 05:46:33 41° WNW 05:50:38 10° SW
Cosmos 2219 Rocket 3.2 05:42:34 10° NNW 05:48:02 46° ENE 05:53:28 10° SE
STARLINK-45 3.7 05:44:36 10° WSW 05:48:41 57° NNW 05:52:46 10° NE
Cosmos 1125 Rocket 3.5 05:43:53 10° SSW 05:49:10 73° WNW 05:54:28 10° NNE
STARLINK-76 3.7 05:47:31 10° WSW 05:51:38 59° NNW 05:55:44 10° NE
Cosmos 1400 Rocket 2.9 05:48:43 10° NNW 05:52:46 63° W 05:56:44 10° S
STARLINK 3.7 05:49:13 10° WSW 05:53:18 57° NNW 05:57:23 10° NE
Meteor 1-26 Rocket 4.2 05:48:14 10° NNW 05:53:55 68° W 05:59:25 10° S
NOAA 6 4.3 05:49:58 10° N 05:54:50 44° WNW 05:59:39 10° SW
STARLINK-32 3.8 05:50:55 10° WSW 05:54:59 56° NNW 05:59:05 10° NE
Gbstr 26 Del rocket 3.8 05:51:56 10° WNW 05:55:14 28° N 05:58:33 10° NE
Cosmos 1825 3.2 05:53:10 10° SW 05:56:18 24° WNW 05:59:26 10° NNW
STARLINK-40 3.8 05:52:35 10° WSW 05:56:40 55° NNW 06:00:44 10° NE
STARLINK-44 3.8 05:54:17 10° WSW 05:58:21 54° NNW 06:02:26 10° NE
ADEOS Rocket 3.9 05:51:38 10° SSE 05:59:24 77° ENE 06:06:49 10° N
STARLINK-36 3.8 05:55:58 10° WSW 06:00:01 52° NNW 06:04:05 10° NE
BREEZE-M DEB (TANK) 3.9 05:52:48 10° WNW 06:01:32 37° SW 06:04:41 10° SSE
BREEZE-M DEB 4.1 05:59:04 10° WNW 06:08:02 67° SSW 06:11:56 10° ESE
